CZ-6A DEB, 55234

Orbit data source: Space-Track

CZ-6A DEB, 55234 is space debris in SSO originally from a launch on Fri, 11 Nov 2022 UTC launched from the Taiyaun Space Center, China (TSC). Debris objects in space refer to the collection of defunct objects orbiting the Earth. Examples of debris include non-operational satellites, rocket bodies, and fragments generated from explosions, collisions, or faulty payload assembly.

Loading next visibility...
Identifier
55234, 2022-151XB
Orbit
SSO
Country
Flag of CNCN / PRC
Related business
Manufacturer
SAST
Mission
Spacecraft
Bus & Motor
Unknown
Mass
Unknown
Launch date (UTC)
2022-11-11 (4 years ago)
Launch vehicle
Unknown
Launch site
Taiyaun Space Center, China (TSC)
Object type
Payload
Rocket body
Debris
Shape & HBR
Unknown shape, 0.1 m
Radar Cross Section
Medium (>0.1 m² and <1 m²)

Expand to show TLE details & history
Last TLE update: 2 days ago

TLE from 2 days ago
0 CZ-6A DEB
1 55234U 22151XB  26171.39015647  .00000249  00000-0  19756-3 0  9998
2 55234  98.8601 138.4058 0111941  48.3891 312.6798 13.97064585183446
Epoch: 2026-06-20T09:21Z
TLE epoch observation values (Epoch: 2026-06-20T09:21:49.519Z)
Latitude
-0.00002°
Longitude
89.34401°
Altitude
852.084 km
Speed
7.454 km/s
True Right ascension
09h 13m 37s
True Declination
0° 00' 00"
Sunlit
Object was in daylight at epoch
Visualization orbit readout
Latitude
Unknown
Longitude
Unknown
Altitude
Unknown
Speed
Unknown
Apparent Right ascension
Unknown
Apparent Declination
Unknown
Sunlit
N/A
Visualization observer readout
Local Sidereal Time
21:54:15
Azimuth
Unknown
Elevation
Unknown
Doppler factor
Unknown
Orbital elements
Apogee altitude
982.659 km
Perigee altitude
819.688 km
Semi-major axis
7,279.311 km
Eccentricity
0.01119
Inclination
98.8601°
RAAN
138.4058°
Arg. of periapsis
48.3891°
True anomaly
311.7278°
Mean anomaly
312.6798°
Eccentric anomaly
312.2047°
Mean motion
3.49468 °/min
Orbital period
103.01 mins
BSTAR
0.00019756
Loading maneuver chart data...
Computing Atmospheric mass density...
Loading historical data...
Loading historical data...
Loading historical data...
Loading historical data...
Loading historical data...
Loading historical data...
Loading historical data...

Documentation

Showing up to 5 results
|